Weather History for Deadhorse, AK

Change the Weather History Date:

Monday, June 17, 2013

  Actual Average Record
Temperature  
Mean Temperature 40 °F -  
Max Temperature 48 °F 45 °F 75 °F (1998)
Min Temperature 32 °F 32 °F 28 °F (1991)
Degree Days  
Heating Degree Days 25    
Moisture  
Dew Point 34 °F    
Average Humidity 88    
Maximum Humidity 100    
Minimum Humidity 66    
Precipitation  
Precipitation 0.00 in - - ()
Sea Level Pressure  
Sea Level Pressure 30.44 in    
Wind  
Wind Speed 7 mph (East)    
Max Wind Speed 14 mph    
Max Gust Speed -    
Visibility 4 miles    
Events Fog    
Averages and records for this station are not official NWS values.
T = Trace of Precipitation, MM = Missing Value Source: NWS Daily Summary

Daily Weather History Graph

Daily Weather History Graph

Search for Another Location

Airport:

Trip Planner

Search our weather history database for the weather conditions in past years. The results will help you decide how hot, cold, wet, or windy it might be!

Date:

Astronomy

Dec. 31, 1969 Rise Set
Actual Time Sun does not rise Sun does not rise
Civil Twilight Sun does not rise Sun does not rise
Nautical Twilight Sun does not rise Sun does not rise
Astronomical Twilight Sun does not rise Sun does not rise
Moon 4:20 PM AKDT (6/17) 1:24 AM AKDT (6/17)
Length of Visible Light 24h 00m
Length of Day
24h 00m
First Quarter, 62% of the Moon is Illuminated
Jun 17
First Quarter
Jun 23
Full
Jun 29
Last Quarter
Jul 7
New
Jul 15
First Quarter

Hourly Weather History & Observations

Time (AKDT) Temp. Windchill Dew Point Humidity Pressure Visibility Wind Dir Wind Speed Gust Speed Precip Events Conditions
12:21 AM 33.8 °F 27.7 °F 32.0 °F 93% 30.47 in 0.5 mi NNE 6.9 mph - N/A Fog Fog
12:26 AM 33.8 °F 27.0 °F 32.0 °F 93% 30.47 in 0.2 mi North 8.1 mph - N/A Fog Fog
12:41 AM 32.0 °F 24.8 °F 32.0 °F 100% 30.47 in 0.2 mi North 8.1 mph - N/A Fog Fog
12:53 AM 32.0 °F 25.6 °F 32.0 °F 100% 30.48 in 0.2 mi NNE 6.9 mph - N/A Fog Fog
1:15 AM 33.8 °F 28.6 °F 32.0 °F 93% 30.47 in 0.8 mi NE 5.8 mph - N/A   Overcast
1:50 AM 33.8 °F 29.6 °F 33.8 °F 100% 30.48 in 0.2 mi ENE 4.6 mph - N/A Fog Fog
1:53 AM 33.1 °F 27.7 °F 33.1 °F 100% 30.48 in 0.2 mi ENE 5.8 mph - N/A Fog Fog
2:07 AM 32.0 °F 26.4 °F 32.0 °F 100% 30.48 in 0.2 mi East 5.8 mph - N/A Fog Fog
2:20 AM 32.0 °F 26.4 °F 32.0 °F 100% 30.48 in 0.2 mi ESE 5.8 mph - N/A Fog Fog
2:51 AM 32.0 °F 27.5 °F 30.2 °F 93% 30.47 in 0.2 mi East 4.6 mph - N/A Fog Fog
2:53 AM 32.0 °F 27.5 °F 30.9 °F 96% 30.48 in 0.2 mi East 4.6 mph - N/A Fog Fog
3:41 AM 32.0 °F 26.4 °F 30.2 °F 93% 30.47 in 0.2 mi SSE 5.8 mph - N/A Fog Fog
3:53 AM 32.0 °F 26.4 °F 32.0 °F 100% 30.48 in 0.2 mi SSE 5.8 mph - N/A Fog Fog
4:22 AM 32.0 °F 26.4 °F 32.0 °F 100% 30.47 in 0.2 mi ESE 5.8 mph - N/A Fog Fog
4:53 AM 32.0 °F 28.7 °F 32.0 °F 100% 30.47 in 0.2 mi SE 3.5 mph - N/A Fog Fog
5:12 AM 32.0 °F 26.4 °F 30.2 °F 93% 30.47 in 0.2 mi ESE 5.8 mph - N/A Fog Fog
5:36 AM 32.0 °F 28.7 °F 32.0 °F 100% 30.46 in 0.2 mi ESE 3.5 mph - N/A Fog Fog
5:53 AM 32.0 °F 28.7 °F 32.0 °F 100% 30.46 in 0.2 mi East 3.5 mph - N/A Fog Fog
6:20 AM 33.8 °F 30.8 °F 33.8 °F 100% 30.45 in 0.2 mi SSE 3.5 mph - N/A Fog Fog
6:30 AM 33.8 °F 29.6 °F 33.8 °F 100% 30.45 in 0.2 mi East 4.6 mph - N/A Fog Fog
6:53 AM 33.1 °F 30.0 °F 32.0 °F 96% 30.46 in 0.2 mi SE 3.5 mph - N/A Fog Fog
7:53 AM 34.0 °F 28.8 °F 34.0 °F 100% 30.45 in 0.5 mi East 5.8 mph - N/A Fog Fog
8:53 AM 36.0 °F 32.1 °F 35.1 °F 97% 30.44 in 0.8 mi East 4.6 mph - N/A   Overcast
9:18 AM 37.4 °F 32.8 °F 35.6 °F 93% 30.44 in 5.0 mi East 5.8 mph - N/A   Overcast
9:53 AM 37.9 °F 34.4 °F 36.0 °F 93% 30.44 in 10.0 mi East 4.6 mph - N/A   Mostly Cloudy
10:13 AM 39.2 °F 35.0 °F 35.6 °F 87% 30.43 in 9.0 mi East 5.8 mph - N/A   Scattered Clouds
10:53 AM 42.1 °F 37.7 °F 37.0 °F 82% 30.43 in 10.0 mi East 6.9 mph - N/A   Scattered Clouds
11:53 AM 44.1 °F 40.1 °F 37.0 °F 76% 30.43 in 10.0 mi ENE 6.9 mph - N/A   Scattered Clouds
12:53 PM 46.0 °F 41.9 °F 37.9 °F 73% 30.43 in 10.0 mi ENE 8.1 mph - N/A   Scattered Clouds
1:53 PM 48.0 °F - 37.9 °F 68% 30.43 in 10.0 mi ENE 9.2 mph - N/A   Scattered Clouds
2:53 PM 48.0 °F - 37.0 °F 66% 30.42 in 10.0 mi ENE 10.4 mph - N/A   Scattered Clouds
3:53 PM 48.9 °F - 37.9 °F 66% 30.41 in 10.0 mi East 11.5 mph - N/A   Scattered Clouds
4:53 PM 48.0 °F - 37.0 °F 66% 30.40 in 10.0 mi ENE 10.4 mph - N/A   Scattered Clouds
5:53 PM 48.0 °F - 37.0 °F 66% 30.39 in 10.0 mi ENE 11.5 mph - N/A   Scattered Clouds
6:53 PM 46.0 °F 39.9 °F 36.0 °F 68% 30.38 in 10.0 mi ENE 13.8 mph - N/A   Scattered Clouds
7:53 PM 45.0 °F 38.9 °F 36.0 °F 71% 30.38 in 10.0 mi ENE 12.7 mph - N/A   Scattered Clouds
8:53 PM 43.0 °F 36.4 °F 34.0 °F 71% 30.37 in 10.0 mi ENE 12.7 mph - N/A   Clear
9:53 PM 42.1 °F 35.7 °F 34.0 °F 73% 30.36 in 10.0 mi East 11.5 mph - N/A   Scattered Clouds
10:53 PM 41.0 °F 33.9 °F 34.0 °F 76% 30.35 in 10.0 mi ENE 12.7 mph - N/A   Scattered Clouds
11:53 PM 39.0 °F 32.3 °F 34.0 °F 82% 30.35 in 10.0 mi East 10.4 mph - N/A   Scattered Clouds